FW2237 Weather Reports


time (UTC)temp
C
wind
direction
speed
KPH
gust
KPH
rain 1hr
cm
rain 24hr
cm
rain mn
cm
humidity
%
barometer
mb
20260505041514 -17 0.0 0.0 0.00 0.00 0.00 981.3
20260505040019 -17 0.0 0.0 0.00 0.00 0.00 981.1
20260505034506 -17 269 0.0 0.0 0.00 0.00 0.00 981.0
20260505033004 9 263 0.0 0.0 0.00 0.00 0.00 93 981.0
20260505031502 10 262 0.0 0.0 0.00 0.00 0.00 93 981.1
20260505030123 10 262 0.0 1.6 0.00 0.00 0.00 92 980.9
20260505024601 10 207 0.0 0.0 0.00 0.00 0.00 91 981.1
20260505023054 11 207 0.0 0.0 0.00 0.00 0.00 92 981.0
20260505021552 11 207 0.0 0.0 0.00 0.00 0.00 92 981.0
20260505020054 11 207 0.0 3.2 0.00 0.00 0.00 92 981.0
20260505014607 11 174 0.0 1.6 0.00 0.00 0.00 92 981.1
20260505013052 11 255 0.0 1.6 0.00 0.00 0.00 92 981.1
20260505011550 11 289 0.0 1.6 0.00 0.00 0.00 93 981.2
20260505010055 11 271 0.0 0.0 0.00 0.00 0.00 92 981.3
20260505004550 11 271 0.0 0.0 0.00 0.00 0.00 92 981.6
20260505003055 11 271 0.0 0.0 0.00 0.00 0.00 92 981.7
20260505001543 11 271 0.0 1.6 0.00 0.00 0.00 92 981.9
20260505000038 11 277 0.0 0.0 0.00 0.00 0.00 91 982.2
20260504234536 11 277 0.0 1.6 0.00 0.00 0.00 91 982.4
20260504233037 11 238 0.0 1.6 0.00 0.00 0.00 90 982.5
20260504231533 11 140 0.0 0.0 0.00 0.00 0.00 90 982.5
20260504230031 12 115 0.0 0.0 0.00 0.00 0.00 89 982.5
20260504224528 12 113 0.0 0.0 0.00 0.00 0.00 88 982.6
20260504223029 12 95 0.0 1.6 0.00 0.00 0.00 87 982.7
20260504221523 13 117 0.0 3.2 0.00 0.00 0.00 87 982.8
20260504220122 13 129 0.0 3.2 0.00 0.00 0.00 86 982.7
20260504214523 13 127 1.6 6.4 0.00 0.00 0.00 86 982.7
20260504213026 13 134 0.0 3.2 0.00 0.00 0.00 86 982.9
20260504211533 13 158 0.0 0.0 0.00 0.00 0.00 86 983.0
20260504210020 13 135 0.0 4.8 0.00 0.00 0.00 86 983.1
20260504204519 13 118 0.0 4.8 0.00 0.00 0.00 86 982.9
20260504203019 13 134 0.0 1.6 0.00 0.00 0.00 85 983.0
20260504201518 14 142 0.0 3.2 0.00 0.00 0.00 84 982.9
20260504200018 14 136 0.0 4.8 0.00 0.00 0.00 83 982.7
20260504194517 15 125 1.6 4.8 0.00 0.00 0.00 83 982.8
20260504193018 15 133 0.0 3.2 0.00 0.00 0.00 82 982.6
20260504191516 15 134 0.0 3.2 0.00 0.00 0.00 82 982.6
20260504190015 15 120 0.0 3.2 0.00 0.00 0.00 81 982.6
20260504184515 15 136 0.0 3.2 0.00 0.00 0.00 81 982.5
20260504183015 15 188 0.0 1.6 0.00 0.00 0.00 80 982.6
20260504181513 15 141 0.0 4.8 0.00 0.00 0.00 79 982.4
20260504180012 16 89 0.0 6.4 0.00 0.00 0.00 78 982.2
20260504174513 16 129 1.6 9.7 0.00 0.00 0.00 77 982.0
20260504173012 16 166 0.0 6.4 0.00 0.00 0.00 76 981.9
20260504171511 17 79 3.2 14.5 0.00 0.00 0.00 75 981.7
20260504081517 18 139 1.6 12.9 0.00 0.00 0.00 57 983.8